Flag for U.S.A. Weather past 2 weeks in Stockton, California, U.S.A.

Now
54 °F

Clear.


Feels Like: 50 °F
Forecast: 49 / 77 °F
Wind: 13 mph from West

Location: Stockton Metropolitan Airport

Current Time: Apr 26, 2015 at 12:08:06 AM

Latest Report: Apr 25, 2015 at 10:55 PM


Visibility: 10 mi

Pressure: 30.00 "Hg

Humidity: 72%

Dew point: 45 °F

Location of StocktonLocation

Historic Weather in Stockton — Graph

°F

Stockton temperature yesterday

Maximum temperature yesterday: 68 °F (at 3:55 PM)
Minimum temperature yesterday: 53 °F (at 2:55 AM)
Average temperature yesterday: 59 °F

Past Weeks' High & Low Weather Summary

 TemperatureHumidityPressure
High86 °F (Apr 18, 4:55 PM)96% (Apr 25, 5:55 AM)30.32 "Hg (Apr 25, 5:55 AM)
Low44 °F (Apr 16, 5:55 AM)11% (Apr 14, 6:55 PM)29.75 "Hg (Apr 20, 5:55 PM)
Average63 °F52%29.95 "Hg
* Reported Apr 10 10:55 PM — Apr 25 10:55 PM, Stockton, Weather by CustomWeather, © 2015

Note: Actual official high and low records may vary slightly from our data, if they occured in-between our weather recording intervals... More about our weather records

Advertising

Stockton weather history for previous 24 hours

 ConditionsComfort  
Time TempWeatherWind HumidityBarometerVisibility
10:55 PM
Sat, Apr 25
54 °FClear.13 mph72%30.00 "Hg10 mi
9:55 PM54 °FClear.10 mph74%29.99 "Hg10 mi
8:55 PM56 °FClear.13 mph70%29.98 "Hg10 mi
7:55 PM59 °FSunny.16 mph64%29.96 "Hg10 mi
6:55 PM63 °FSunny.18 mph58%29.93 "Hg10 mi
5:55 PM66 °FScattered clouds.18 mph54%29.93 "Hg10 mi
4:55 PM68 °FBroken clouds.10 mph45%29.92 "Hg10 mi
3:55 PM68 °FScattered clouds.12 mph47%29.91 "Hg10 mi
2:55 PM65 °FBroken clouds.12 mph59%29.93 "Hg10 mi
1:55 PM67 °FBroken clouds.15 mph59%29.93 "Hg10 mi
12:55 PM65 °FSunny.14 mph59%29.92 "Hg10 mi
11:55 AM62 °FCloudy.12 mph67%29.94 "Hg10 mi
10:55 AM60 °FCloudy.9 mph72%29.94 "Hg10 mi
9:55 AM60 °FCloudy.9 mph72%29.92 "Hg10 mi
8:55 AM59 °FScattered clouds.12 mph81%29.91 "Hg10 mi
7:55 AM57 °FSunny.6 mph83%29.90 "Hg10 mi
6:55 AM55 °FClear.7 mph87%29.88 "Hg10 mi
5:55 AM53 °FPassing clouds.No wind96%29.88 "Hg10 mi
4:55 AM54 °FLight rain. Mostly cloudy.5 mph93%29.88 "Hg9 mi
3:55 AM54 °FLight rain. Fog.5 mph90%29.87 "Hg6 mi
2:55 AM53 °FRain. Fog.13 mph93%29.87 "Hg5 mi
1:55 AM54 °FRain. Fog.10 mph93%29.90 "Hg4 mi
12:55 AM54 °FRain. Fog.5 mph93%29.93 "Hg6 mi
Weather by CustomWeather, © 2015

See weather overviewHow to use our weather pages